Location: Rowland
(34.5359°N, 79.2929°W)
Time: 13:59:52
(UTC+00:00)

SR - Pass Details

Date: 07 October 2022
Orbit: 577 x 875 km, 66.7° (Epoch: 28 November)

Event Time Altitude Azimuth Distance (km) Brightness Sun altitude
Rises 23:04:16 0° 160° (SSE) 3,387 ? -3.1°
Reaches altitude 10° 23:07:39 10° 139° (SE) 2,489 ? -3.8°
Maximum altitude 23:11:02 16° 103° (ESE) 2,116 ? -4.5°
Drops below altitude 10° 23:14:27 10° 68° (ENE) 2,526 ? -5.2°
Sets 23:17:55 0° 48° (NE) 3,463 ? -6.0°
